This is the latest recevied weather packets stored in our database for station/object WW4HG. If no packets are shown the sender has not sent any weather packets the latest 10 day(s).
| Time | Temp. | Humidity | Pressure | Rain* | Wind** | Luminosity | Snow |
|---|---|---|---|---|---|---|---|
| 1777644111 | 17.78° C | 67% | 1014.6 hPa | 0 mm | - | 103 W/m² | - |
| 1777643808 | 17.78° C | 68% | 1015 hPa | 0 mm | - | 122 W/m² | - |
| 1777643505 | 17.78° C | 68% | 1014.6 hPa | 0 mm | - | 113 W/m² | - |
| 1777643201 | 17.78° C | 68% | 1014.6 hPa | 0 mm | - | 102 W/m² | - |
| 1777642898 | 17.78° C | 68% | 1014.3 hPa | 0 mm | - | 101 W/m² | - |
| 1777642595 | 17.78° C | 68% | 1014.6 hPa | 0 mm | - | 104 W/m² | - |
| 1777642292 | 17.78° C | 68% | 1014.6 hPa | 0 mm | - | 114 W/m² | - |
| 1777641989 | 17.78° C | 68% | 1014.3 hPa | 0 mm | - | 124 W/m² | - |
| 1777641684 | 17.22° C | 69% | 1014.6 hPa | 0 mm | - | 145 W/m² | - |
| 1777641380 | 17.22° C | 71% | 1014.6 hPa | 0 mm | - | 294 W/m² | - |
| 1777641075 | 17.22° C | 72% | 1014.6 hPa | 0 mm | - | 145 W/m² | - |
| 1777640771 | 17.22° C | 73% | 1014.3 hPa | 0 mm | - | 113 W/m² | - |
| 1777640469 | 17.22° C | 73% | 1014.3 hPa | 0 mm | - | 107 W/m² | - |
| 1777640165 | 16.67° C | 72% | 1014.3 hPa | 0 mm | - | 103 W/m² | - |
| 1777639862 | 16.67° C | 72% | 1014.3 hPa | 0 mm | - | 99 W/m² | - |
| 1777639554 | 16.67° C | 72% | 1014.3 hPa | 0 mm | - | 94 W/m² | - |
| 1777639250 | 16.67° C | 75% | 1014.3 hPa | 0 mm | - | 127 W/m² | - |
| 1777638947 | 16.67° C | 75% | 1014 hPa | 0 mm | - | 140 W/m² | - |
| 1777638643 | 16.67° C | 76% | 1014 hPa | 0 mm | - | 106 W/m² | - |
| 1777638340 | 16.67° C | 77% | 1014 hPa | 0 mm | - | 98 W/m² | - |
| 1777638035 | 16.11° C | 77% | 1014 hPa | 0 mm | - | 101 W/m² | - |
| 1777637732 | 16.11° C | 78% | 1014 hPa | 0 mm | - | 85 W/m² | - |
| 1777637428 | 16.11° C | 78% | 1014.3 hPa | 0 mm | - | 56 W/m² | - |
| 1777637125 | 16.11° C | 79% | 1014.3 hPa | 0 mm | - | 46 W/m² | - |
| 1777636822 | 16.11° C | 79% | 1014 hPa | 0 mm | - | 37 W/m² | - |
* Rain latest hour (hover to see other rain measurements)
** Current wind speed in m/s (hover to see current wind gust speed)